| time (UTC) | temp F | wind direction | speed MPH | gust MPH | rain 1hr in | rain 24hr in | rain mn in | humidity % | barometer mb |
| 20260504223941 | 47 | 338 | 7.0 | 9.0 | 0.00 | 0.00 | 0.00 | 46 | 1006.3 |
| 20260504223437 | 47 | 320 | 10.0 | 14.0 | 0.00 | 0.00 | 0.00 | 47 | 1006.4 |
| 20260504222933 | 47 | 338 | 10.0 | 13.0 | 0.00 | 0.00 | 0.00 | 47 | 1006.3 |
| 20260504222431 | 47 | 297 | 8.0 | 13.0 | 0.00 | 0.00 | 0.00 | 47 | 1006.0 |
| 20260504221929 | 47 | 329 | 7.0 | 16.0 | 0.00 | 0.00 | 0.00 | 48 | 1006.1 |
| 20260504221425 | 47 | 32 | 6.0 | 10.0 | 0.00 | 0.00 | 0.00 | 48 | 1006.0 |
| 20260504220922 | 47 | 297 | 6.0 | 9.0 | 0.00 | 0.00 | 0.00 | 50 | 1006.1 |
| 20260504220419 | 47 | 306 | 11.0 | 16.0 | 0.00 | 0.00 | 0.00 | 48 | 1006.1 |
| 20260504215916 | 47 | 296 | 11.0 | 16.0 | 0.00 | 0.00 | 0.00 | 47 | 1006.1 |
| 20260504215413 | 48 | 280 | 8.0 | 10.0 | 0.00 | 0.00 | 0.00 | 46 | 1006.1 |
| 20260504214909 | 47 | 273 | 10.0 | 19.0 | 0.00 | 0.00 | 0.00 | 50 | 1006.0 |
| 20260504214406 | 46 | 299 | 11.0 | 13.0 | 0.00 | 0.00 | 0.00 | 51 | 1006.2 |
| 20260504213903 | 46 | 300 | 11.0 | 16.0 | 0.00 | 0.00 | 0.00 | 51 | 1006.0 |
| 20260504213358 | 46 | 318 | 9.0 | 13.0 | 0.00 | 0.00 | 0.00 | 52 | 1006.0 |
| 20260504212856 | 46 | 256 | 10.0 | 14.0 | 0.00 | 0.00 | 0.00 | 53 | 1005.9 |
| 20260504212351 | 46 | 307 | 9.0 | 13.0 | 0.00 | 0.00 | 0.00 | 52 | 1006.3 |
| 20260504211850 | 46 | 285 | 6.0 | 11.0 | 0.00 | 0.00 | 0.00 | 56 | 1005.9 |
| 20260504211346 | 46 | 7 | 5.0 | 13.0 | 0.00 | 0.00 | 0.00 | 53 | 1005.9 |
| 20260504210843 | 46 | 295 | 6.0 | 15.0 | 0.00 | 0.00 | 0.00 | 52 | 1006.0 |
| 20260504210340 | 47 | 295 | 6.0 | 17.0 | 0.00 | 0.00 | 0.00 | 53 | 1005.9 |
| 20260504205837 | 47 | 308 | 6.0 | 16.0 | 0.00 | 0.00 | 0.00 | 52 | 1005.6 |
| 20260504205335 | 47 | 294 | 7.0 | 13.0 | 0.00 | 0.00 | 0.00 | 53 | 1005.8 |
| 20260504204833 | 48 | 314 | 9.0 | 21.0 | 0.00 | 0.00 | 0.00 | 52 | 1005.5 |
| 20260504204331 | 47 | 304 | 12.0 | 17.0 | 0.00 | 0.00 | 0.00 | 53 | 1005.5 |
| 20260504203830 | 49 | 310 | 10.0 | 16.0 | 0.00 | 0.00 | 0.00 | 52 | 1005.3 |
| 20260504203327 | 48 | 320 | 7.0 | 16.0 | 0.00 | 0.00 | 0.00 | 52 | 1005.3 |
| 20260504202822 | 49 | 277 | 8.0 | 23.0 | 0.00 | 0.00 | 0.00 | 51 | 1005.3 |
| 20260504202320 | 49 | 299 | 11.0 | 17.0 | 0.00 | 0.00 | 0.00 | 51 | 1005.2 |
| 20260504201816 | 49 | 287 | 13.0 | 17.0 | 0.00 | 0.00 | 0.00 | 49 | 1005.1 |
| 20260504201314 | 49 | 291 | 6.0 | 15.0 | 0.00 | 0.00 | 0.00 | 50 | 1005.3 |
| 20260504200811 | 48 | 20 | 11.0 | 17.0 | 0.00 | 0.00 | 0.00 | 50 | 1005.1 |
| 20260504200308 | 49 | 273 | 14.0 | 18.0 | 0.00 | 0.00 | 0.00 | 48 | 1005.0 |
| 20260504195803 | 49 | 275 | 3.0 | 11.0 | 0.00 | 0.00 | 0.00 | 54 | 1004.7 |
| 20260504195300 | 49 | 288 | 11.0 | 16.0 | 0.00 | 0.00 | 0.00 | 50 | 1005.1 |
| 20260504194757 | 49 | 254 | 5.0 | 16.0 | 0.00 | 0.00 | 0.00 | 54 | 1004.7 |
| 20260504194253 | 50 | 240 | 10.0 | 19.0 | 0.00 | 0.00 | 0.00 | 50 | 1005.0 |
| 20260504193749 | 49 | 316 | 10.0 | 13.0 | 0.00 | 0.00 | 0.00 | 51 | 1004.7 |
| 20260504193247 | 48 | 298 | 6.0 | 16.0 | 0.00 | 0.00 | 0.00 | 54 | 1005.0 |
| 20260504192745 | 48 | 285 | 12.0 | 19.0 | 0.00 | 0.00 | 0.00 | 51 | 1004.9 |
| 20260504192243 | 48 | 21 | 9.0 | 23.0 | 0.00 | 0.00 | 0.00 | 52 | 1004.5 |
| 20260504191741 | 48 | 316 | 6.0 | 11.0 | 0.00 | 0.00 | 0.00 | 52 | 1004.5 |
| 20260504191238 | 48 | 287 | 11.0 | 18.0 | 0.00 | 0.00 | 0.00 | 50 | 1004.5 |
| 20260504190733 | 50 | 341 | 10.0 | 13.0 | 0.00 | 0.00 | 0.00 | 51 | 1004.3 |
| 20260504190230 | 50 | 262 | 11.0 | 21.0 | 0.00 | 0.00 | 0.00 | 51 | 1004.2 |
| 20260504185726 | 50 | 266 | 6.0 | 10.0 | 0.00 | 0.00 | 0.00 | 54 | 1004.1 |
| 20260504185223 | 49 | 346 | 10.0 | 15.0 | 0.00 | 0.00 | 0.00 | 50 | 1004.1 |
| 20260504184719 | 49 | 333 | 13.0 | 21.0 | 0.00 | 0.00 | 0.00 | 50 | 1004.2 |
| 20260504184215 | 48 | 271 | 9.0 | 14.0 | 0.00 | 0.00 | 0.00 | 52 | 1004.1 |
| 20260504183711 | 49 | 261 | 5.0 | 22.0 | 0.00 | 0.00 | 0.00 | 54 | 1004.1 |
| 20260504183208 | 50 | 277 | 11.0 | 15.0 | 0.00 | 0.00 | 0.00 | 51 | 1004.1 |
| 20260504182706 | 48 | 291 | 17.0 | 19.0 | 0.00 | 0.00 | 0.00 | 52 | 1003.9 |
| 20260504182204 | 49 | 329 | 7.0 | 16.0 | 0.00 | 0.00 | 0.00 | 54 | 1003.8 |
| 20260504181701 | 49 | 190 | 4.0 | 14.0 | 0.00 | 0.00 | 0.00 | 54 | 1003.9 |
| 20260504181158 | 49 | 286 | 9.0 | 15.0 | 0.00 | 0.00 | 0.00 | 53 | 1003.6 |
| 20260504180657 | 50 | 308 | 9.0 | 17.0 | 0.00 | 0.00 | 0.00 | 51 | 1003.7 |
| 20260504180155 | 48 | 262 | 10.0 | 16.0 | 0.00 | 0.00 | 0.00 | 55 | 1003.5 |
| 20260504175652 | 49 | 302 | 12.0 | 21.0 | 0.00 | 0.00 | 0.00 | 54 | 1003.4 |
| 20260504175149 | 49 | 298 | 15.0 | 24.0 | 0.00 | 0.00 | 0.00 | 53 | 1003.4 |
| 20260504174647 | 50 | 305 | 6.0 | 15.0 | 0.00 | 0.00 | 0.00 | 55 | 1003.5 |
| 20260504174144 | 49 | 346 | 10.0 | 15.0 | 0.00 | 0.00 | 0.00 | 54 | 1003.6 |
| 20260504173641 | 49 | 280 | 9.0 | 19.0 | 0.00 | 0.00 | 0.00 | 53 | 1003.2 |
| 20260504173138 | 50 | 356 | 6.0 | 14.0 | 0.00 | 0.00 | 0.00 | 55 | 1003.4 |
| 20260504172635 | 51 | 292 | 13.0 | 18.0 | 0.00 | 0.00 | 0.00 | 50 | 1003.0 |
| 20260504172131 | 48 | 334 | 10.0 | 19.0 | 0.00 | 0.00 | 0.00 | 55 | 1003.3 |
| 20260504171628 | 48 | 311 | 11.0 | 15.0 | 0.00 | 0.00 | 0.00 | 56 | 1003.2 |
| 20260504171125 | 49 | 322 | 9.0 | 19.0 | 0.00 | 0.00 | 0.00 | 56 | 1003.1 |
| 20260504170621 | 49 | 259 | 3.0 | 17.0 | 0.00 | 0.00 | 0.00 | 60 | 1002.8 |
| 20260504170119 | 50 | 276 | 6.0 | 18.0 | 0.00 | 0.00 | 0.00 | 56 | 1003.3 |
| 20260504151004 | 50 | 273 | 13.0 | 16.0 | 0.00 | 0.00 | 0.00 | 63 | 1001.7 |
| 20260504150502 | 49 | 13 | 4.0 | 16.0 | 0.00 | 0.00 | 0.00 | 65 | 1001.8 |
| 20260504140928 | 50 | 325 | 17.0 | 24.0 | 0.00 | 0.00 | 0.00 | 59 | 1001.1 |
| 20260504140424 | 49 | 285 | 11.0 | 18.0 | 0.00 | 0.00 | 0.00 | 59 | 1000.9 |
| 20260504130349 | 50 | 287 | 7.0 | 19.0 | 0.00 | 0.00 | 0.00 | 70 | 1000.2 |
| 20260504120312 | 48 | 281 | 7.0 | 8.0 | 0.00 | 0.00 | 0.00 | 72 | 999.7 |
| 20260504110236 | 49 | 281 | 2.0 | 6.0 | 0.00 | 0.00 | 0.00 | 69 | 998.5 |
| 20260504100154 | 51 | 299 | 6.0 | 16.0 | 0.00 | 0.00 | 0.00 | 66 | 998.3 |
| 20260504090116 | 58 | 297 | 10.0 | 16.0 | 0.00 | 0.00 | 0.00 | 54 | 997.5 |
| 20260504081547 | 61 | 299 | 11.0 | 17.0 | 0.00 | 0.00 | 0.00 | 44 | 996.6 |
| 20260504081042 | 60 | 215 | 7.0 | 11.0 | 0.00 | 0.00 | 0.00 | 45 | 995.7 |
| 20260504080539 | 61 | 297 | 12.0 | 16.0 | 0.00 | 0.00 | 0.00 | 44 | 995.8 |
| 20260504050352 | 57 | 238 | 4.0 | 7.0 | 0.00 | 0.00 | 0.00 | 49 | 1000.0 |
| 20260504045849 | 57 | 267 | 6.0 | 9.0 | 0.00 | 0.00 | 0.00 | 47 | 1000.2 |
| 20260504045344 | 57 | 267 | 6.0 | 9.0 | 0.00 | 0.00 | 0.00 | 47 | 1000.3 |
| 20260504044841 | 57 | 194 | 1.0 | 6.0 | 0.00 | 0.00 | 0.00 | 48 | 1000.5 |
| 20260504044339 | 58 | 223 | 2.0 | 4.0 | 0.00 | 0.00 | 0.00 | 47 | 1000.4 |
| 20260504043836 | 58 | 209 | 5.0 | 7.0 | 0.00 | 0.00 | 0.00 | 47 | 1000.5 |
| 20260504043333 | 58 | 310 | 2.0 | 6.0 | 0.00 | 0.00 | 0.00 | 48 | 1000.5 |
| 20260504042830 | 58 | 281 | 9.0 | 10.0 | 0.00 | 0.00 | 0.00 | 47 | 1000.6 |
| 20260504042326 | 58 | 207 | 4.0 | 7.0 | 0.00 | 0.00 | 0.00 | 46 | 1001.0 |
| 20260504041823 | 58 | 243 | 10.0 | 16.0 | 0.00 | 0.00 | 0.00 | 45 | 1000.9 |
| 20260504041319 | 58 | 225 | 4.0 | 6.0 | 0.00 | 0.00 | 0.00 | 47 | 1000.9 |
| 20260504040815 | 58 | 182 | 4.0 | 8.0 | 0.00 | 0.00 | 0.00 | 47 | 1001.2 |
| 20260504040313 | 59 | 203 | 2.0 | 6.0 | 0.00 | 0.00 | 0.00 | 47 | 1001.2 |
| 20260504035809 | 59 | 232 | 4.0 | 7.0 | 0.00 | 0.00 | 0.00 | 46 | 1001.3 |
| 20260504035306 | 59 | 208 | 5.0 | 8.0 | 0.00 | 0.00 | 0.00 | 46 | 1001.5 |
| 20260504034803 | 59 | 184 | 2.0 | 7.0 | 0.00 | 0.00 | 0.00 | 47 | 1001.6 |
| 20260504034301 | 59 | 222 | 4.0 | 7.0 | 0.00 | 0.00 | 0.00 | 46 | 1001.9 |
| 20260504033758 | 59 | 211 | 2.0 | 7.0 | 0.00 | 0.00 | 0.00 | 46 | 1001.6 |
| 20260504033255 | 59 | 204 | 2.0 | 6.0 | 0.00 | 0.00 | 0.00 | 45 | 1001.8 |
| 20260504032752 | 59 | 259 | 3.0 | 7.0 | 0.00 | 0.00 | 0.00 | 45 | 1001.9 |
| 20260504032249 | 59 | 224 | 4.0 | 6.0 | 0.00 | 0.00 | 0.00 | 45 | 1002.1 |
| 20260504031746 | 59 | 180 | 2.0 | 3.0 | 0.00 | 0.00 | 0.00 | 44 | 1002.4 |
| 20260504031243 | 60 | 156 | 3.0 | 6.0 | 0.00 | 0.00 | 0.00 | 43 | 1002.2 |
| 20260504030738 | 60 | 195 | 1.0 | 1.0 | 0.00 | 0.00 | 0.00 | 44 | 1002.5 |
| 20260504030236 | 60 | 205 | 2.0 | 4.0 | 0.00 | 0.00 | 0.00 | 43 | 1002.7 |
| 20260504025733 | 60 | 196 | 1.0 | 3.0 | 0.00 | 0.00 | 0.00 | 43 | 1002.7 |
| 20260504025230 | 60 | 204 | 2.0 | 2.0 | 0.00 | 0.00 | 0.00 | 43 | 1002.8 |
| 20260504024727 | 60 | 204 | 2.0 | 4.0 | 0.00 | 0.00 | 0.00 | 42 | 1003.0 |
| 20260504024223 | 60 | 200 | 1.0 | 4.0 | 0.00 | 0.00 | 0.00 | 43 | 1003.1 |
| 20260504023720 | 60 | 228 | 1.0 | 4.0 | 0.00 | 0.00 | 0.00 | 43 | 1003.1 |
| 20260504023216 | 60 | 251 | 3.0 | 4.0 | 0.00 | 0.00 | 0.00 | 43 | 1003.1 |
| 20260504022712 | 60 | 168 | 2.0 | 3.0 | 0.00 | 0.00 | 0.00 | 45 | 1003.2 |
| 20260504022208 | 60 | 221 | 1.0 | 2.0 | 0.00 | 0.00 | 0.00 | 45 | 1003.3 |
| 20260504021706 | 60 | 195 | 1.0 | 4.0 | 0.00 | 0.00 | 0.00 | 45 | 1003.4 |
| 20260504021203 | 60 | 153 | 1.0 | 3.0 | 0.00 | 0.00 | 0.00 | 45 | 1003.3 |
| 20260504020700 | 60 | 227 | 2.0 | 4.0 | 0.00 | 0.00 | 0.00 | 46 | 1003.6 |
| 20260504020155 | 60 | 241 | 3.0 | 4.0 | 0.00 | 0.00 | 0.00 | 46 | 1003.6 |
| 20260504015652 | 60 | 136 | 3.0 | 4.0 | 0.00 | 0.00 | 0.00 | 45 | 1003.8 |
| 20260504015149 | 61 | 219 | 1.0 | 2.0 | 0.00 | 0.00 | 0.00 | 44 | 1003.7 |
| 20260504014644 | 61 | 209 | 3.0 | 4.0 | 0.00 | 0.00 | 0.00 | 43 | 1003.8 |
| 20260504014142 | 62 | 215 | 0.0 | 4.0 | 0.00 | 0.00 | 0.00 | 43 | 1003.9 |
| 20260504013639 | 62 | 228 | 3.0 | 3.0 | 0.00 | 0.00 | 0.00 | 41 | 1003.9 |
| 20260504013136 | 62 | 262 | 2.0 | 3.0 | 0.00 | 0.00 | 0.00 | 41 | 1004.0 |
| 20260504012633 | 62 | 219 | 2.0 | 6.0 | 0.00 | 0.00 | 0.00 | 42 | 1004.0 |
| 20260504012131 | 62 | 273 | 1.0 | 3.0 | 0.00 | 0.00 | 0.00 | 42 | 1004.3 |
| 20260504011628 | 62 | 273 | 1.0 | 3.0 | 0.00 | 0.00 | 0.00 | 42 | 1004.3 |
| 20260504011124 | 62 | 233 | 2.0 | 2.0 | 0.00 | 0.00 | 0.00 | 42 | 1004.1 |
| 20260504010620 | 63 | 252 | 1.0 | 2.0 | 0.00 | 0.00 | 0.00 | 41 | 1004.5 |
| 20260504010116 | 64 | 264 | 2.0 | 3.0 | 0.00 | 0.00 | 0.00 | 39 | 1004.3 |
| 20260504005613 | 65 | 255 | 1.0 | 2.0 | 0.00 | 0.00 | 0.00 | 36 | 1004.5 |
| 20260504005110 | 65 | 197 | 2.0 | 2.0 | 0.00 | 0.00 | 0.00 | 36 | 1004.7 |
| 20260504004608 | 66 | 257 | 3.0 | 4.0 | 0.00 | 0.00 | 0.00 | 36 | 1004.5 |
| 20260504004105 | 66 | 284 | 5.0 | 7.0 | 0.00 | 0.00 | 0.00 | 33 | 1004.7 |
| 20260504003601 | 66 | 255 | 6.0 | 7.0 | 0.00 | 0.00 | 0.00 | 33 | 1004.6 |
| 20260504003058 | 66 | 249 | 4.0 | 4.0 | 0.00 | 0.00 | 0.00 | 35 | 1004.7 |
| 20260504002555 | 66 | 252 | 2.0 | 3.0 | 0.00 | 0.00 | 0.00 | 35 | 1004.9 |
| 20260504002052 | 66 | 223 | 2.0 | 4.0 | 0.00 | 0.00 | 0.00 | 36 | 1005.1 |
| 20260504001550 | 67 | 256 | 6.0 | 8.0 | 0.00 | 0.00 | 0.00 | 33 | 1005.0 |
| 20260504001045 | 67 | 281 | 5.0 | 10.0 | 0.00 | 0.00 | 0.00 | 33 | 1005.1 |
| 20260504000543 | 67 | 249 | 3.0 | 4.0 | 0.00 | 0.00 | 0.00 | 33 | 1005.2 |
| 20260504000040 | 67 | 263 | 6.0 | 8.0 | 0.00 | 0.00 | 0.00 | 31 | 1005.3 |
| 20260503235539 | 67 | 319 | 6.0 | 7.0 | 0.00 | 0.00 | 0.00 | 30 | 1005.5 |
| 20260503235035 | 67 | 289 | 5.0 | 7.0 | 0.00 | 0.00 | 0.00 | 30 | 1005.4 |
| 20260503234533 | 68 | 260 | 9.0 | 11.0 | 0.00 | 0.00 | 0.00 | 30 | 1005.6 |
| 20260503234031 | 68 | 278 | 8.0 | 9.0 | 0.00 | 0.00 | 0.00 | 30 | 1005.5 |
| 20260503233527 | 68 | 259 | 7.0 | 9.0 | 0.00 | 0.00 | 0.00 | 30 | 1005.5 |
| 20260503233023 | 68 | 292 | 11.0 | 14.0 | 0.00 | 0.00 | 0.00 | 29 | 1005.7 |
| 20260503232520 | 67 | 279 | 8.0 | 9.0 | 0.00 | 0.00 | 0.00 | 30 | 1005.8 |
| 20260503232018 | 67 | 246 | 7.0 | 10.0 | 0.00 | 0.00 | 0.00 | 31 | 1005.9 |
| 20260503231516 | 67 | 324 | 6.0 | 8.0 | 0.00 | 0.00 | 0.00 | 31 | 1005.8 |
| 20260503231012 | 67 | 324 | 6.0 | 8.0 | 0.00 | 0.00 | 0.00 | 31 | 1005.9 |
| 20260503230509 | 67 | 324 | 6.0 | 8.0 | 0.00 | 0.00 | 0.00 | 31 | 1005.9 |
| 20260503230007 | 67 | 221 | 8.0 | 9.0 | 0.00 | 0.00 | 0.00 | 30 | 1006.3 |
| 20260503225503 | 67 | 221 | 8.0 | 9.0 | 0.00 | 0.00 | 0.00 | 30 | 1005.9 |
| 20260503224958 | 67 | 241 | 6.0 | 8.0 | 0.00 | 0.00 | 0.00 | 30 | 1006.2 |
| 20260503224455 | 67 | 241 | 6.0 | 8.0 | 0.00 | 0.00 | 0.00 | 30 | 1006.0 |
| 20260503223953 | 67 | 241 | 6.0 | 8.0 | 0.00 | 0.00 | 0.00 | 30 | 1006.2 |